World > North America > United States > North Carolina

Whitakers, North Carolina Regional Weather

Lat: 36.11N, Lon: 77.7W
Wx Zone: NCZ028
Warning NWS WEATHER ALERT - (More Info. Click Here) Warning
Feedback

Whitakers, NC Regional Weather

Expires:201910162000;;807458
ASUS42 KMHX 161926
RWRMHX
WEATHER ROUNDUP FOR EASTERN NORTH CAROLINA
NATIONAL WEATHER SERVICE NEWPORT/MOREHEAD CITY NC
300 PM EDT WED OCT 16 2019

NOTE: "FAIR" INDICATES FEW OR NO CLOUDS BELOW 12,000 FEET
WITH NO SIGNIFICANT WEATHER AND/OR OBSTRUCTIONS TO VISIBILITY


NCZ011>013-027>030-043-044-078>080-089-090>093-098-162000-
COASTAL PLAIN
  
CITY           SKY/WX    TMP DP  RH WIND       PRES   REMARKS
AHOSKIE        NOT AVBL                                               
CLINTON        CLOUDY    72  71  97 SW8       29.58F                  
ELIZABETHTOWN  CLOUDY    74  68  82 W10G20    29.61F                  
GOLDSBORO      LGT RAIN  72  72 100 W13       29.55F                  
GREENVILLE     RAIN      72  70  94 SW10G16   29.58F                  
HAVELOCK       CLOUDY    76  70  82 SW16G24   29.56F                  
KENANSVILLE    CLOUDY    73  70  88 W14G23    29.56F                  
KINSTON        CLOUDY    73  70  88 SW9       29.57F                  
NEW BERN       PTSUNNY   74  73  97 SW9       29.55F                  
RICHLANDS      LGT RAIN  73  70  88 SW12G20   29.57F FOG              
ROCKY MOUNT    CLOUDY    68  67  96 W13G22    29.58F                  
WASHINGTON     DRIZZLE   73  70  91 SW8       29.53F                  
WHITEVILLE     CLOUDY    77  68  74 SW7G16    29.61F                  

$$


SKY/WX - Weather  TMP - Temperature  DP - Dew Point  RH - Relative Humidity
WIND - Wind Direction/Speed PRES - Barometric Pressure VSB - Visibility
WCI - Wind Chill Index E13G22 Wind - East Wind 13 mph/Gusts of 22 mph